Location: Latina
(41.4670°N, 12.8670°E)
Time: 18:16:02
(UTC+02:00)

ISS - Pass Details

Date: 18 May 2021
Orbit: 417 x 422 km, 51.6° (Epoch: 18 June)

Event Time Altitude Azimuth Distance (km) Brightness Sun altitude
Rises 01:17:45 0° 308° (NW) 2,371 0.5 -28.9°
Reaches altitude 10° 01:20:18 10° 328° (NNW) 1,506 -0.3 -28.9°
Enters shadow 01:22:22 18° 5° (N) 1,108 -0.9 -28.8°
